Sigfox identifier Datetime Temperature Humidity SNR
003B5940 2019-03-18 13:21:16 20.7 27 20.1
003B5940 2019-03-18 12:48:42 20.7 27 20.1
003B5940 2019-03-18 12:16:08 20.7 27 19.9
003B5940 2019-03-18 11:43:35 20.7 27 21.3
003B5940 2019-03-18 11:11:01 20.7 27 21.1
003B5940 2019-03-18 10:38:28 20.6 27 21.1
003B5940 2019-03-18 10:05:54 20.6 27 21
003B5940 2019-03-18 09:33:18 20.6 27 21.1
003B5940 2019-03-18 09:00:10 20.5 27 21.1
003B5940 2019-03-18 08:27:34 20.5 27 21.1
003B5940 2019-03-18 07:54:57 20.5 27 21.1
003B5940 2019-03-18 07:22:21 20.5 27 21.2
003B5940 2019-03-18 06:49:47 20.6 27 21.1
003B5940 2019-03-18 06:17:11 20.5 27 21.2
003B5940 2019-03-18 05:44:37 20.5 27 21.3
003B5940 2019-03-18 05:12:03 20.6 27 21.2
003B5940 2019-03-18 04:39:30 20.5 27 21.2
003B5940 2019-03-18 04:06:55 20.5 27 21.2
003B5940 2019-03-18 03:34:20 20.6 27 21.1
003B5940 2019-03-18 03:01:44 20.6 27 21.3
003B5940 2019-03-18 02:29:09 20.5 27 21.3
003B5940 2019-03-18 01:56:33 20.5 26 21.3
003B5940 2019-03-18 01:23:58 20.5 26 21.2
003B5940 2019-03-18 00:51:22 20.5 26 21.1
003B5940 2019-03-18 00:18:48 20.5 26 21.2
003B5940 2019-03-17 23:46:13 20.5 26 21.2
003B5940 2019-03-17 23:13:37 20.5 26 21.2
003B5940 2019-03-17 22:41:00 20.5 26 19.8
003B5940 2019-03-17 22:08:24 20.5 26 19.9
003B5940 2019-03-17 21:35:49 20.5 26 19.9
003B5940 2019-03-17 21:03:16 20.5 26 20
003B5940 2019-03-17 20:30:39 20.5 26 20
003B5940 2019-03-17 19:58:01 20.5 26 20.1
003B5940 2019-03-17 19:25:24 20.5 26 20.1
003B5940 2019-03-17 18:52:50 20.5 26 20.2
003B5940 2019-03-17 18:20:13 20.5 26 20.4
003B5940 2019-03-17 17:47:37 20.5 26 20.1
003B5940 2019-03-17 17:15:03 20.6 26 20.1
003B5940 2019-03-17 16:42:29 20.6 26 20.1
003B5940 2019-03-17 16:09:54 20.6 26 20.1
003B5940 2019-03-17 15:37:18 20.6 26 20.2
003B5940 2019-03-17 15:04:43 20.6 26 20.1
003B5940 2019-03-17 14:32:07 20.6 26 20
003B5940 2019-03-17 13:59:32 20.6 26 20.1
003B5940 2019-03-17 13:26:58 20.6 26 20
003B5940 2019-03-17 12:54:23 20.6 26 20
003B5940 2019-03-17 12:21:48 20.6 26 20
003B5940 2019-03-17 11:49:12 20.6 26 20.1
003B5940 2019-03-17 11:16:37 20.6 26 20.3
003B5940 2019-03-17 10:44:03 20.6 26 20.2
003B5940 2019-03-17 10:11:28 20.6 26 20.2
003B5940 2019-03-17 09:38:54 20.6 26 20.3
003B5940 2019-03-17 09:06:18 20.6 26 20.3
003B5940 2019-03-17 08:33:42 20.6 26 20.2
003B5940 2019-03-17 08:01:07 20.5 26 20.3
003B5940 2019-03-17 07:28:33 20.5 26 20.3
003B5940 2019-03-17 06:55:58 20.5 27 20.2
003B5940 2019-03-17 06:23:22 20.6 27 20.3
003B5940 2019-03-17 05:50:04 20.5 27 20.4
003B5940 2019-03-17 05:17:28 20.6 27 20.4
003B5940 2019-03-17 04:44:54 20.5 27 20.2
003B5940 2019-03-17 04:12:19 20.5 27 20.2
003B5940 2019-03-17 03:39:42 20.6 27 20.3
003B5940 2019-03-17 03:07:06 20.5 27 20.3
003B5940 2019-03-17 02:34:31 20.6 27 20.3
003B5940 2019-03-17 02:01:55 20.6 27 20.3
003B5940 2019-03-17 01:29:19 20.5 27 20.3
003B5940 2019-03-17 00:56:42 20.6 27 20.4
003B5940 2019-03-17 00:24:06 20.5 27 20.3
003B5940 2019-03-16 23:51:30 20.5 27 20.3
003B5940 2019-03-16 23:18:55 20.5 27 20.2
003B5940 2019-03-16 22:46:19 20.6 27 20.2
003B5940 2019-03-16 22:13:44 20.6 27 20.1
003B5940 2019-03-16 21:41:09 20.6 27 20.1
003B5940 2019-03-16 21:08:33 20.6 26 20.1
003B5940 2019-03-16 20:35:58 20.6 26 20.3
003B5940 2019-03-16 20:03:22 20.6 26 20.3
003B5940 2019-03-16 19:30:46 20.5 26 20.2
003B5940 2019-03-16 18:58:12 20.6 26 20.4
003B5940 2019-03-16 18:25:37 20.6 26 20.4
003B5940 2019-03-16 17:53:02 20.6 26 20.5
003B5940 2019-03-16 17:20:28 20.6 26 20.6
003B5940 2019-03-16 16:47:53 20.6 26 20.5
003B5940 2019-03-16 16:15:19 20.6 26 20.6
003B5940 2019-03-16 15:42:44 20.6 26 20.5
003B5940 2019-03-16 15:10:08 20.6 26 21.8
003B5940 2019-03-16 14:37:32 20.6 26 21.8
003B5940 2019-03-16 14:04:57 20.6 26 21.8
003B5940 2019-03-16 13:32:21 20.6 26 21.7
003B5940 2019-03-16 12:59:45 20.6 26 21.6
003B5940 2019-03-16 12:27:11 20.6 26 21.6
003B5940 2019-03-16 11:54:36 20.6 26 21.8
003B5940 2019-03-16 11:22:01 20.5 26 21.7
003B5940 2019-03-16 10:49:25 20.6 26 21.8
003B5940 2019-03-16 10:16:51 20.6 26 21.8
003B5940 2019-03-16 09:44:17 20.6 26 21.9
003B5940 2019-03-16 09:11:41 20.6 26 21.9
003B5940 2019-03-16 08:39:06 20.6 26 22
003B5940 2019-03-16 08:06:30 20.6 26 21.9
003B5940 2019-03-16 07:33:56 20.6 26 22
003B5940 2019-03-16 07:01:21 20.6 26 22
003B5940 2019-03-16 06:28:46 20.6 26 22
003B5940 2019-03-16 05:56:12 20.6 26 22
003B5940 2019-03-16 05:23:38 20.6 26 21.9
003B5940 2019-03-16 04:51:03 20.6 26 21.9
003B5940 2019-03-16 04:18:29 20.6 26 21.8
003B5940 2019-03-16 03:45:54 20.6 26 21.7
003B5940 2019-03-16 03:13:19 20.6 26 21.6
003B5940 2019-03-16 02:40:03 20.6 26 21.5
003B5940 2019-03-16 02:07:28 20.6 26 21.5
003B5940 2019-03-16 01:34:54 20.6 26 20.2
003B5940 2019-03-16 01:02:20 20.6 26 20.5
003B5940 2019-03-16 00:29:44 20.6 26 20.4
003B5940 2019-03-15 23:57:10 20.6 26 20.6
003B5940 2019-03-15 23:24:36 20.7 26 20.6
003B5940 2019-03-15 22:52:01 20.7 27 20.7
003B5940 2019-03-15 22:19:26 20.7 27 20.5
003B5940 2019-03-15 21:46:52 20.7 27 20.6
003B5940 2019-03-15 21:14:17 20.7 27 20.7
003B5940 2019-03-15 20:41:42 20.7 27 20.8
003B5940 2019-03-15 20:09:07 20.7 27 20.8
003B5940 2019-03-15 19:36:32 20.7 26 20.9
003B5940 2019-03-15 19:03:57 20.7 26 20.8
003B5940 2019-03-15 18:31:22 20.7 26 22
003B5940 2019-03-15 17:58:49 20.7 26 21.8
003B5940 2019-03-15 17:26:15 20.7 26 21.8
003B5940 2019-03-15 16:53:40 20.8 26 21.8
003B5940 2019-03-15 16:21:05 20.8 26 21.9
003B5940 2019-03-15 15:48:30 20.8 26 22
003B5940 2019-03-15 15:15:55 20.7 26 22.1
003B5940 2019-03-15 14:43:20 20.8 26 22.2
003B5940 2019-03-15 14:10:43 20.7 26 22.3
003B5940 2019-03-15 13:38:07 20.8 26 22.4
003B5940 2019-03-15 13:05:33 20.8 26 22.4
003B5940 2019-03-15 12:32:58 20.7 26 22.6
003B5940 2019-03-15 12:00:24 20.8 26 22.6
003B5940 2019-03-15 11:27:50 20.7 26 22.4
003B5940 2019-03-15 10:55:17 20.7 26 22.5
003B5940 2019-03-15 10:22:44 20.7 26 22.5
003B5940 2019-03-15 09:50:12 20.6 26 22.5
003B5940 2019-03-15 09:17:37 20.6 26 22.5
003B5940 2019-03-15 08:45:04 20.6 25 22.5
003B5940 2019-03-15 08:12:31 20.5 25 23.3
003B5940 2019-03-15 07:39:55 20.6 25 23.2
003B5940 2019-03-15 07:07:20 20.6 24 23.1
003B5940 2019-03-15 06:34:45 20.6 24 23.1
003B5940 2019-03-15 06:02:10 20.6 24 23
003B5940 2019-03-15 05:29:36 20.6 24 23
003B5940 2019-03-15 04:57:01 20.6 24 22.1
003B5940 2019-03-15 04:24:26 20.6 24 22.1
003B5940 2019-03-15 03:51:51 20.6 24 22
003B5940 2019-03-15 03:19:16 20.6 24 21.9
003B5940 2019-03-15 02:46:41 20.6 24 21.8
003B5940 2019-03-15 02:14:07 20.6 24 21.6
003B5940 2019-03-15 01:41:32 20.6 24 21.6
003B5940 2019-03-15 01:08:59 20.6 24 21.6
003B5940 2019-03-15 00:36:26 20.7 24 21.5
003B5940 2019-03-15 00:03:53 20.7 24 21.5
003B5940 2019-03-14 23:30:47 20.7 24 21.4
003B5940 2019-03-14 22:58:15 20.7 24 21.3
003B5940 2019-03-14 22:25:42 20.7 24 21.4
003B5940 2019-03-14 21:53:07 20.7 24 21.2
003B5940 2019-03-14 21:20:33 20.8 24 21.2
003B5940 2019-03-14 20:48:00 20.8 24 21.2
003B5940 2019-03-14 20:15:25 20.8 24 21.1
003B5940 2019-03-14 19:42:52 20.8 24 21.1
003B5940 2019-03-14 19:10:17 20.8 24 19.8
003B5940 2019-03-14 18:37:44 20.9 24 20
003B5940 2019-03-14 18:05:07 20.9 24 20
003B5940 2019-03-14 17:32:33 20.9 24 20.1
003B5940 2019-03-14 16:59:57 20.9 24 20.3
003B5940 2019-03-14 16:27:22 20.9 24 20.5
003B5940 2019-03-14 15:54:47 20.9 24 20.6
003B5940 2019-03-14 15:22:12 20.9 24 20.8
003B5940 2019-03-14 14:49:38 20.9 24 20.9
003B5940 2019-03-14 14:17:04 20.9 24 21.1
003B5940 2019-03-14 13:44:29 20.9 24 21.2
003B5940 2019-03-14 13:11:54 20.9 24 21.1
003B5940 2019-03-14 12:39:20 20.8 24 21.2
003B5940 2019-03-14 12:06:46 20.8 23 21.2
003B5940 2019-03-14 11:34:13 20.8 23 21.2
003B5940 2019-03-14 11:01:40 20.7 23 21.2
003B5940 2019-03-14 10:29:07 20.7 23 21.3
003B5940 2019-03-14 09:56:33 20.7 23 21.3
003B5940 2019-03-14 09:23:58 20.7 22 21.3
003B5940 2019-03-14 08:51:24 20.6 21 21.3
003B5940 2019-03-14 05:03:23 20.6 19 21.4
003B5940 2019-03-14 04:30:48 20.6 19 21.4
003B5940 2019-03-14 03:58:15 20.6 19 21.3
003B5940 2019-03-14 03:25:41 20.6 18 21.2
003B5940 2019-03-14 02:53:09 20.6 18 21
003B5940 2019-03-14 02:20:32 20.6 18 22
003B5940 2019-03-14 01:47:56 20.6 18 21.9
003B5940 2019-03-14 01:15:20 20.6 18 21.8
003B5940 2019-03-14 00:42:46 20.6 17 21.7
003B5940 2019-03-14 00:10:11 20.6 17 21.7
003B5940 2019-03-13 23:37:36 20.6 17 21.8
003B5940 2019-03-13 23:05:02 20.6 17 21.8
003B5940 2019-03-13 22:32:28 20.6 17 21.7
003B5940 2019-03-13 21:59:52 20.7 17 21.7
003B5940 2019-03-13 21:27:17 20.7 17 21.7
003B5940 2019-03-13 20:54:43 20.7 17 21.4
003B5940 2019-03-13 20:21:41 20.7 16 21.6
003B5940 2019-03-13 19:49:05 20.7 16 21.6
003B5940 2019-03-13 19:16:28 20.7 16 21.6
003B5940 2019-03-13 18:43:52 20.8 16 21.8
003B5940 2019-03-13 18:11:16 20.8 16 21.9
003B5940 2019-03-13 17:38:42 20.9 16 21.8
003B5940 2019-03-13 17:06:08 20.9 16 21.8
003B5940 2019-03-13 16:33:33 20.9 16 22
003B5940 2019-03-13 16:00:59 20.9 16 22.1
003B5940 2019-03-13 15:28:24 20.9 16 22.1
003B5940 2019-03-13 14:55:51 20.9 16 22.2
003B5940 2019-03-13 14:23:18 20.8 16 22.3
003B5940 2019-03-13 13:50:45 20.8 16 22.4
003B5940 2019-03-13 13:18:12 20.8 16 21.5
003B5940 2019-03-13 12:45:38 20.8 16 21.7
003B5940 2019-03-13 12:13:03 20.7 16 21.8
003B5940 2019-03-13 11:40:30 20.8 16 21.9
003B5940 2019-03-13 11:07:55 20.7 17 22
003B5940 2019-03-13 10:35:21 20.7 16 21.9
003B5940 2019-03-13 10:02:47 20.6 17 21.9
003B5940 2019-03-13 09:30:10 20.4 16 22
003B5940 2019-03-13 08:57:36 20.3 14 22
003B5940 2019-03-13 08:25:02 20.3 14 21.9
003B5940 2019-03-13 07:52:29 20.3 14 22.1
003B5940 2019-03-13 07:19:56 20.3 15 22.9
003B5940 2019-03-13 06:47:22 20.3 15 22.9
003B5940 2019-03-13 06:14:47 20.4 15 22.8
003B5940 2019-03-13 05:42:13 20.4 15 22.9
003B5940 2019-03-13 05:09:40 20.4 15 22.7
003B5940 2019-03-13 04:37:07 20.4 15 22.6
003B5940 2019-03-13 04:04:33 20.4 15 22.5
003B5940 2019-03-13 03:32:00 20.4 16 22.6
003B5940 2019-03-13 02:59:26 20.4 16 22.4
003B5940 2019-03-13 02:26:52 20.4 16 23.2
003B5940 2019-03-13 01:54:19 20.4 16 23.1
003B5940 2019-03-13 01:21:46 20.4 16 23.2
003B5940 2019-03-13 00:49:11 20.5 16 23
003B5940 2019-03-13 00:16:36 20.5 16 22.9
003B5940 2019-03-12 23:44:02 20.5 16 22.9
003B5940 2019-03-12 23:11:26 20.5 16 22.8
003B5940 2019-03-12 22:38:52 20.5 16 22.7
003B5940 2019-03-12 22:06:18 20.5 16 23.4
003B5940 2019-03-12 21:33:45 20.6 16 24
003B5940 2019-03-12 21:01:11 20.6 16 24.6
003B5940 2019-03-12 20:28:35 20.6 16 25.1
003B5940 2019-03-12 19:55:59 20.6 16 25.5
003B5940 2019-03-12 19:23:25 20.6 16 26
003B5940 2019-03-12 18:50:48 20.6 16 26.3
003B5940 2019-03-12 18:18:13 20.7 16 26.7
003B5940 2019-03-12 17:45:37 20.7 16 26.7
003B5940 2019-03-12 17:12:30 20.7 16 27
003B5940 2019-03-12 16:39:56 20.7 16 27.3
003B5940 2019-03-12 16:07:24 20.7 16 27.6
003B5940 2019-03-12 15:34:50 20.7 16 27.8
003B5940 2019-03-12 15:02:15 20.7 16 28.1
003B5940 2019-03-12 14:29:41 20.6 16 28.3
003B5940 2019-03-12 13:57:05 20.6 16 28.5
003B5940 2019-03-12 13:24:31 20.6 16 28.5
003B5940 2019-03-12 12:51:57 20.6 16 28.8
003B5940 2019-03-12 12:19:23 20.6 16 28.9
003B5940 2019-03-12 11:46:49 20.5 16 29
003B5940 2019-03-12 11:14:14 20.5 15 29.2
003B5940 2019-03-12 10:41:40 20.5 15 29.3
003B5940 2019-03-12 10:09:05 20.4 15 29.5
003B5940 2019-03-12 09:36:30 20.4 15 29.7
003B5940 2019-03-12 09:03:56 20.3 15 29.7
003B5940 2019-03-12 08:31:22 20.3 15 29.7
003B5940 2019-03-12 07:58:46 20.3 15 29.7
003B5940 2019-03-12 07:26:12 20.3 15 29.7
003B5940 2019-03-12 06:53:38 20.3 15 29.7
003B5940 2019-03-12 06:21:03 20.4 15 29.7
003B5940 2019-03-12 05:48:29 20.3 16 29.7
003B5940 2019-03-12 05:15:53 20.3 16 29.5
003B5940 2019-03-12 04:43:19 20.4 16 29.4
003B5940 2019-03-12 04:10:45 20.4 16 29.2
003B5940 2019-03-12 03:38:12 20.4 16 29.2
003B5940 2019-03-12 03:05:38 20.4 16 29
003B5940 2019-03-12 02:33:05 20.4 16 29
003B5940 2019-03-12 02:00:31 20.4 16 28.8
003B5940 2019-03-12 01:27:57 20.4 16 28.6
003B5940 2019-03-12 00:55:25 20.5 16 28.4
003B5940 2019-03-12 00:22:53 20.5 16 28.2
003B5940 2019-03-11 23:50:20 20.5 16 28
003B5940 2019-03-11 23:17:47 20.5 16 27.7
003B5940 2019-03-11 22:45:14 20.5 16 27.5
003B5940 2019-03-11 22:12:41 20.6 16 27.8
003B5940 2019-03-11 21:40:08 20.6 16 27.5
003B5940 2019-03-11 21:07:38 20.6 16 27.2
003B5940 2019-03-11 20:35:05 20.6 16 26.9
003B5940 2019-03-11 20:02:34 20.6 16 26.6
003B5940 2019-03-11 19:30:00 20.7 16 26.3
003B5940 2019-03-11 18:57:27 20.7 16 25.9
003B5940 2019-03-11 18:24:54 20.7 16 25.5
003B5940 2019-03-11 17:52:21 20.8 16 25.1
003B5940 2019-03-11 17:19:47 20.8 16 24.7
003B5940 2019-03-11 16:47:14 20.8 16 24.2
003B5940 2019-03-11 16:14:40 20.7 16 23.6
003B5940 2019-03-11 15:42:09 20.7 16 23.6
003B5940 2019-03-11 15:09:35 20.6 16 23.6
003B5940 2019-03-11 14:37:02 20.6 16 23.5
003B5940 2019-03-11 14:03:55 20.5 16 23.6
003B5940 2019-03-11 13:31:21 20.5 16 22.9
003B5940 2019-03-11 12:58:47 20.5 16 22.9
003B5940 2019-03-11 12:26:12 20.5 16 22.8
003B5940 2019-03-11 11:53:38 20.5 16 22.9
003B5940 2019-03-11 11:21:04 20.5 16 22.9
003B5940 2019-03-11 10:48:28 20.5 16 22.9
003B5940 2019-03-11 10:15:55 20.4 16 22.9
003B5940 2019-03-11 09:43:21 20.4 16 22.9
003B5940 2019-03-11 09:10:47 20.3 16 22.1
003B5940 2019-03-11 08:38:15 20.3 17 22.2
003B5940 2019-03-11 08:05:43 20.3 17 22.3
003B5940 2019-03-11 07:33:09 20.3 17 22.3
003B5940 2019-03-11 07:00:35 20.3 17 22.2
003B5940 2019-03-11 06:28:03 20.3 17 22.2
003B5940 2019-03-11 05:55:31 20.4 18 22.1
003B5940 2019-03-11 05:22:58 20.4 18 22.1
003B5940 2019-03-11 04:50:26 20.4 18 22.1
003B5940 2019-03-11 04:17:53 20.4 18 22
003B5940 2019-03-11 03:45:20 20.4 18 21.9
003B5940 2019-03-11 03:12:48 20.4 18 21.9
003B5940 2019-03-11 02:40:14 20.4 18 21.9
003B5940 2019-03-11 02:07:43 20.4 18 21.8
003B5940 2019-03-11 01:35:10 20.4 18 21.9
003B5940 2019-03-11 01:02:36 20.4 19 21.8
003B5940 2019-03-11 00:30:02 20.5 19 21.8
003B5940 2019-03-10 23:57:29 20.4 19 21.8
003B5940 2019-03-10 23:24:55 20.5 19 21.7
003B5940 2019-03-10 22:52:21 20.5 19 21.5
003B5940 2019-03-10 22:19:47 20.5 19 21.4
003B5940 2019-03-10 21:47:15 20.5 19 21.3
003B5940 2019-03-10 21:14:40 20.5 19 21.3
003B5940 2019-03-10 20:42:07 20.5 19 21.2
003B5940 2019-03-10 20:09:31 20.6 19 21.1
003B5940 2019-03-10 19:36:59 20.6 19 21.1
003B5940 2019-03-10 19:04:25 20.6 19 20.9
003B5940 2019-03-10 18:31:53 20.7 19 20.8
003B5940 2019-03-10 17:59:20 20.7 19 20.9
003B5940 2019-03-10 17:26:47 20.7 20 20.8
003B5940 2019-03-10 16:54:14 20.7 20 20.9
003B5940 2019-03-10 16:21:41 20.7 20 20.9
003B5940 2019-03-10 15:49:08 20.6 20 20.9
003B5940 2019-03-10 15:16:36 20.6 20 20.9
003B5940 2019-03-10 14:44:04 20.6 22 20.9
003B5940 2019-03-10 14:11:32 20.6 23 20.8
003B5940 2019-03-10 13:39:03 20.6 23 20.8
003B5940 2019-03-10 13:06:26 20.5 23 20.8
003B5940 2019-03-10 12:33:55 20.5 23 20.8
003B5940 2019-03-10 12:01:22 20.5 24 20.9
003B5940 2019-03-10 11:28:50 20.5 24 21
003B5940 2019-03-10 10:55:44 20.5 24 21.1
003B5940 2019-03-10 10:23:10 20.5 24 21.1
003B5940 2019-03-10 09:50:36 20.5 24 21.4
003B5940 2019-03-10 09:18:04 20.5 24 21.5
003B5940 2019-03-10 08:45:29 20.5 24 21.5
003B5940 2019-03-10 08:12:55 20.5 24 21.6
003B5940 2019-03-10 07:40:21 20.5 24 21.7
003B5940 2019-03-10 07:07:47 20.5 24 21.7
003B5940 2019-03-10 06:35:12 20.5 24 21.7
003B5940 2019-03-10 06:02:39 20.5 24 21.7
003B5940 2019-03-10 05:30:05 20.5 24 21.7
003B5940 2019-03-10 04:57:31 20.5 24 21.8
003B5940 2019-03-10 04:24:57 20.5 24 21.7
003B5940 2019-03-10 03:52:22 20.5 24 21.6
003B5940 2019-03-10 03:19:48 20.5 24 21.6
003B5940 2019-03-10 02:47:14 20.5 24 21.8
003B5940 2019-03-10 02:14:40 20.6 24 21.8
003B5940 2019-03-10 01:42:06 20.6 24 21.8
003B5940 2019-03-10 01:09:32 20.6 24 21.8
003B5940 2019-03-10 00:36:59 20.6 24 21.8
003B5940 2019-03-10 00:04:24 20.6 24 21.7
003B5940 2019-03-09 23:31:51 20.6 24 21.6
003B5940 2019-03-09 22:59:16 20.6 24 21.6
003B5940 2019-03-09 22:26:42 20.6 23 21.6
003B5940 2019-03-09 21:54:07 20.6 23 21.5
003B5940 2019-03-09 21:21:32 20.6 23 21.5
003B5940 2019-03-09 20:48:58 20.6 23 21.5
003B5940 2019-03-09 20:16:23 20.7 23 21.4
003B5940 2019-03-09 19:43:48 20.6 23 21.3
003B5940 2019-03-09 19:11:15 20.6 23 21.3
003B5940 2019-03-09 18:38:41 20.7 23 21.1
003B5940 2019-03-09 18:06:08 20.7 23 21.1
003B5940 2019-03-09 17:33:34 20.7 23 21.3
003B5940 2019-03-09 17:00:58 20.7 23 21.1
003B5940 2019-03-09 16:28:25 20.8 23 21.2
003B5940 2019-03-09 15:55:51 20.7 23 21.3
003B5940 2019-03-09 15:23:16 20.7 23 21.3
003B5940 2019-03-09 14:50:41 20.7 23 21.2
003B5940 2019-03-09 14:18:06 20.7 23 21.3
003B5940 2019-03-09 13:45:32 20.7 23 21.3
003B5940 2019-03-09 13:12:57 20.7 23 21.3
003B5940 2019-03-09 12:40:22 20.6 23 21.3
003B5940 2019-03-09 12:07:49 20.6 23 21.2
003B5940 2019-03-09 11:35:14 20.6 23 21.2
003B5940 2019-03-09 11:02:40 20.5 24 21.3
003B5940 2019-03-09 10:30:05 20.6 24 21.4
003B5940 2019-03-09 09:57:30 20.5 24 21.4
003B5940 2019-03-09 09:24:54 20.5 24 21.4
003B5940 2019-03-09 08:52:18 20.5 24 21.4
003B5940 2019-03-09 08:19:44 20.5 24 21.4
003B5940 2019-03-09 07:46:35 20.5 25 21.4
003B5940 2019-03-09 07:14:01 20.6 25 21.5
003B5940 2019-03-09 06:41:28 20.6 25 21.5
003B5940 2019-03-09 06:08:53 20.6 25 21.5
003B5940 2019-03-09 05:36:17 20.6 26 21.7
003B5940 2019-03-09 05:03:41 20.6 26 22.6
003B5940 2019-03-09 04:31:07 20.7 26 22.4
003B5940 2019-03-09 03:58:33 20.7 26 22.5
003B5940 2019-03-09 03:25:58 20.7 26 22.5
003B5940 2019-03-09 02:53:24 20.7 26 22.3
003B5940 2019-03-09 02:20:50 20.7 27 22.4
003B5940 2019-03-09 01:48:16 20.7 27 22.5
003B5940 2019-03-09 01:15:42 20.7 27 22.4
003B5940 2019-03-09 00:43:09 20.8 27 22.4
003B5940 2019-03-09 00:10:35 20.8 27 22.3
003B5940 2019-03-08 23:38:01 20.8 27 22.4
003B5940 2019-03-08 23:05:28 20.8 27 22.4
003B5940 2019-03-08 22:32:54 20.8 27 22.4
003B5940 2019-03-08 22:00:20 20.9 27 22.5
003B5940 2019-03-08 21:27:46 20.9 27 22.5
003B5940 2019-03-08 20:55:12 20.9 27 22.5
003B5940 2019-03-08 20:22:39 20.9 27 22.5
003B5940 2019-03-08 19:50:04 21 27 22.5
003B5940 2019-03-08 19:17:30 21 27 22.5
003B5940 2019-03-08 18:44:58 21 27 22.6
003B5940 2019-03-08 18:12:23 21 27 22.5
003B5940 2019-03-08 17:39:49 21 27 22.6
003B5940 2019-03-08 17:07:16 21.1 27 22.6
003B5940 2019-03-08 16:34:41 21.1 28 22.7
003B5940 2019-03-08 16:02:08 21.1 28 22.7
003B5940 2019-03-08 15:29:35 21 28 21.7
003B5940 2019-03-08 14:57:03 21 27 21.7
003B5940 2019-03-08 14:24:29 20.9 27 21.6
003B5940 2019-03-08 13:51:57 20.9 27 21.7
003B5940 2019-03-08 13:19:24 20.9 27 21.8
003B5940 2019-03-08 12:46:52 20.9 27 21.8
003B5940 2019-03-08 12:14:19 20.8 27 21.8
003B5940 2019-03-08 11:41:44 20.8 26 21.8
003B5940 2019-03-08 11:09:09 20.8 26 21.8
003B5940 2019-03-08 10:36:34 20.7 26 21.6
003B5940 2019-03-08 10:03:59 20.7 26 21.6
003B5940 2019-03-08 09:31:26 20.7 25 21.7
003B5940 2019-03-08 08:58:51 20.7 25 21.7
003B5940 2019-03-08 08:26:17 20.7 25 21.7
003B5940 2019-03-08 07:53:42 20.7 24 21.6
003B5940 2019-03-08 07:21:08 20.7 24 21.5
003B5940 2019-03-08 06:48:34 20.7 24 21.5
003B5940 2019-03-08 06:15:59 20.7 24 21.4
003B5940 2019-03-08 05:43:23 20.7 23 21.2
003B5940 2019-03-08 05:10:48 20.7 23 21.3
003B5940 2019-03-08 04:37:41 20.7 23 21.2
003B5940 2019-03-08 04:05:08 20.7 23 21.1
003B5940 2019-03-08 03:32:36 20.7 23 21.1
003B5940 2019-03-08 03:00:01 20.7 23 21
003B5940 2019-03-08 02:27:27 20.7 23 21.1
003B5940 2019-03-08 01:54:52 20.7 23 21.1
003B5940 2019-03-08 01:22:19 20.7 23 21.1
003B5940 2019-03-08 00:49:44 20.7 23 21.1
003B5940 2019-03-08 00:17:10 20.7 23 20.9
003B5940 2019-03-07 23:44:37 20.7 23 20.9
003B5940 2019-03-07 23:12:03 20.7 23 20.7
003B5940 2019-03-07 22:39:31 20.8 23 20.8
003B5940 2019-03-07 22:06:57 20.8 22 20.7
003B5940 2019-03-07 21:34:23 20.8 22 20.8
003B5940 2019-03-07 21:01:49 20.8 23 20.8
003B5940 2019-03-07 20:29:17 20.9 23 20.8
003B5940 2019-03-07 19:56:44 20.9 23 20.6
003B5940 2019-03-07 19:24:10 20.9 23 20.4
003B5940 2019-03-07 18:51:36 21 23 20.4
003B5940 2019-03-07 18:19:03 21 23 20.4
003B5940 2019-03-07 17:46:31 21.1 23 20.6
003B5940 2019-03-07 17:13:58 21.1 23 20.7
003B5940 2019-03-07 16:41:26 21.2 23 20.8
003B5940 2019-03-07 16:08:52 21.1 23 20.6
003B5940 2019-03-07 15:36:19 21.1 22 20.5
003B5940 2019-03-07 15:03:46 21.1 22 20.4
003B5940 2019-03-07 14:31:13 21.1 23 20.4
003B5940 2019-03-07 13:58:40 21 22 20.1
003B5940 2019-03-07 13:26:07 21 21 20.1
003B5940 2019-03-07 12:53:32 20.9 21 19.9
003B5940 2019-03-07 12:20:59 20.9 20 19.8
003B5940 2019-03-07 11:48:24 20.9 20 19.5
003B5940 2019-03-07 11:15:49 20.9 20 19.4
003B5940 2019-03-07 10:43:15 20.9 19 19.4
003B5940 2019-03-07 10:10:42 20.9 18 19.3
003B5940 2019-03-07 09:38:08 20.7 17 19.3
003B5940 2019-03-07 09:05:33 20.7 16 19.2
003B5940 2019-03-07 08:32:58 20.7 16 19.2
003B5940 2019-03-07 08:00:22 20.7 16 19.2
003B5940 2019-03-07 07:27:47 20.7 15 18.9
003B5940 2019-03-07 06:55:12 20.7 15 18.7
003B5940 2019-03-07 06:22:38 20.7 15 18.7
003B5940 2019-03-07 05:50:04 20.7 14 18.7
003B5940 2019-03-07 05:17:30 20.7 14 18.6
003B5940 2019-03-07 04:44:55 20.7 14 18.4
003B5940 2019-03-07 04:12:19 20.7 14 18.3
003B5940 2019-03-07 03:39:45 20.7 13 18.4
003B5940 2019-03-07 03:07:11 20.7 13 18.3
003B5940 2019-03-07 02:34:37 20.7 13 18.2
003B5940 2019-03-07 02:02:02 20.7 13 18
003B5940 2019-03-07 01:28:54 20.7 13 18.2
003B5940 2019-03-07 00:56:20 20.7 13 18.1
003B5940 2019-03-07 00:23:46 20.7 13 18.1
003B5940 2019-03-06 23:51:12 20.7 12 18.2
003B5940 2019-03-06 23:18:39 20.7 12 18.2
003B5940 2019-03-06 22:46:06 20.7 12 18.4
003B5940 2019-03-06 22:13:32 20.7 12 18.2
003B5940 2019-03-06 21:40:58 20.7 12 18.2
003B5940 2019-03-06 21:08:25 20.7 12 18.2
003B5940 2019-03-06 20:35:51 20.7 12 18.2
003B5940 2019-03-06 20:03:17 20.8 12 18.4
003B5940 2019-03-06 19:30:42 20.8 12 18.7
003B5940 2019-03-06 18:58:08 20.8 11 18.9
003B5940 2019-03-06 18:25:34 20.8 11 19.1
003B5940 2019-03-06 17:53:00 20.9 11 19.1
003B5940 2019-03-06 17:20:26 20.9 11 18.9
003B5940 2019-03-06 16:47:51 20.9 11 19.2
003B5940 2019-03-06 16:15:17 20.9 11 19.1
003B5940 2019-03-06 15:42:44 21 11 18.9
003B5940 2019-03-06 15:10:08 20.9 11 20.6
003B5940 2019-03-06 14:37:33 20.8 11 20.9
003B5940 2019-03-06 14:04:59 20.7 11 21.2
003B5940 2019-03-06 13:32:23 20.7 11 21.3
003B5940 2019-03-06 12:59:49 20.6 11 21.3
003B5940 2019-03-06 12:27:16 20.7 11 21.4
003B5940 2019-03-06 11:54:43 20.6 11 21.5
003B5940 2019-03-06 11:22:09 20.6 11 21.5
003B5940 2019-03-06 10:49:37 20.6 11 21.5
003B5940 2019-03-06 10:17:05 20.5 11 21.5
003B5940 2019-03-06 09:44:34 20.4 11 21.6
003B5940 2019-03-06 09:11:57 20.4 11 21.7
003B5940 2019-03-06 08:39:24 20.4 11 21.8
003B5940 2019-03-06 08:06:49 20.4 12 21.7
003B5940 2019-03-06 07:34:14 20.5 12 21.7
003B5940 2019-03-06 07:01:39 20.5 12 21.8
003B5940 2019-03-06 06:29:05 20.5 12 21.7
003B5940 2019-03-06 05:56:30 20.5 12 21.6
003B5940 2019-03-06 05:23:55 20.5 12 21.4
003B5940 2019-03-06 04:51:21 20.5 12 21.4
003B5940 2019-03-06 04:18:46 20.5 12 21.5
003B5940 2019-03-06 03:46:12 20.5 12 21.3
003B5940 2019-03-06 03:13:38 20.5 13 21.2
003B5940 2019-03-06 02:41:03 20.6 13 21.2
003B5940 2019-03-06 02:08:29 20.6 13 21.4
003B5940 2019-03-06 01:35:55 20.6 13 20
003B5940 2019-03-06 01:03:20 20.7 13 19.6
003B5940 2019-03-06 00:30:46 20.7 13 19.6
003B5940 2019-03-05 23:58:12 20.7 13 19.4
003B5940 2019-03-05 23:25:38 20.7 13 19.5
003B5940 2019-03-05 22:53:04 20.8 13 19.3
003B5940 2019-03-05 22:19:58 20.8 13 19.2
003B5940 2019-03-05 21:47:24 20.8 13 19.3
003B5940 2019-03-05 21:14:50 20.8 13 19.3
003B5940 2019-03-05 20:42:14 20.8 13 19.5
003B5940 2019-03-05 20:09:40 20.9 13 19.3
003B5940 2019-03-05 19:37:05 20.9 13 19.2
003B5940 2019-03-05 19:04:31 20.9 13 19.1
003B5940 2019-03-05 18:31:56 20.9 13 19
003B5940 2019-03-05 17:59:21 20.9 14 19.2
003B5940 2019-03-05 17:26:48 21 14 19
003B5940 2019-03-05 16:54:13 21 15 19.1
003B5940 2019-03-05 16:21:38 21 15 19.5
003B5940 2019-03-05 15:49:03 20.9 15 19.7
003B5940 2019-03-05 15:16:29 20.8 16 19.8
003B5940 2019-03-05 14:43:56 20.7 16 19.8
003B5940 2019-03-05 14:11:22 20.6 16 20
003B5940 2019-03-05 13:38:48 20.6 17 20.1
003B5940 2019-03-05 13:06:14 20.5 17 20
003B5940 2019-03-05 12:33:39 20.5 17 20
003B5940 2019-03-05 12:01:04 20.5 17 20.2
003B5940 2019-03-05 11:28:29 20.5 17 20.1
003B5940 2019-03-05 10:55:54 20.5 17 20.2
003B5940 2019-03-05 10:23:19 20.5 18 20.3
003B5940 2019-03-05 09:50:44 20.5 18 20.5
003B5940 2019-03-05 09:18:08 20.5 18 20.5
003B5940 2019-03-05 08:45:33 20.5 18 20.4
003B5940 2019-03-05 08:12:57 20.5 18 20.2
003B5940 2019-03-05 07:40:22 20.5 19 20.2
003B5940 2019-03-05 07:07:47 20.5 19 20.1
003B5940 2019-03-05 06:35:12 20.5 19 20.2
003B5940 2019-03-05 06:02:38 20.5 19 20.2
003B5940 2019-03-05 05:30:03 20.5 19 20.4
003B5940 2019-03-05 04:57:29 20.5 19 20.6
003B5940 2019-03-05 04:24:54 20.5 19 20.4
003B5940 2019-03-05 03:52:20 20.5 19 20.4
003B5940 2019-03-05 03:19:45 20.5 19 20.3
003B5940 2019-03-05 02:47:11 20.5 19 21.4
003B5940 2019-03-05 02:14:38 20.5 18 21.5
003B5940 2019-03-05 01:42:05 20.5 18 21.3
003B5940 2019-03-05 01:09:29 20.5 18 21.3
003B5940 2019-03-05 00:36:53 20.5 18 21.3
003B5940 2019-03-05 00:04:18 20.5 18 21.2
003B5940 2019-03-04 23:31:43 20.5 18 21.2
003B5940 2019-03-04 22:59:09 20.5 18 21.2
003B5940 2019-03-04 22:26:35 20.5 18 21
003B5940 2019-03-04 21:54:00 20.5 18 21
003B5940 2019-03-04 21:21:26 20.6 18 21
003B5940 2019-03-04 20:48:50 20.5 18 20.9
003B5940 2019-03-04 20:16:14 20.5 18 21.9
003B5940 2019-03-04 19:43:38 20.5 18 21.9
003B5940 2019-03-04 19:10:34 20.5 18 22.9
003B5940 2019-03-04 18:38:00 20.5 18 22.9
003B5940 2019-03-04 18:05:27 20.6 18 22.9
003B5940 2019-03-04 17:32:54 20.5 18 22.9
003B5940 2019-03-04 17:00:18 20.5 18 22.8
003B5940 2019-03-04 16:27:43 20.5 17 22.8
003B5940 2019-03-04 15:55:07 20.5 17 22.7
003B5940 2019-03-04 15:22:35 20.5 17 22.7
003B5940 2019-03-04 14:50:02 20.4 17 22.6
003B5940 2019-03-04 14:17:28 20.4 17 22.6
003B5940 2019-03-04 13:44:55 20.4 17 21.5
003B5940 2019-03-04 13:12:23 20.4 17 21.4
003B5940 2019-03-04 12:39:50 20.3 17 21.4
003B5940 2019-03-04 12:07:16 20.3 17 21.4
003B5940 2019-03-04 11:34:43 20.2 17 21.3
003B5940 2019-03-04 11:02:09 20.2 17 21.2
003B5940 2019-03-04 10:29:35 20.2 17 21.2
003B5940 2019-03-04 09:56:59 20.1 17 21
003B5940 2019-03-04 09:24:23 20.1 17 21.2
003B5940 2019-03-04 08:51:48 20 17 21.1
003B5940 2019-03-04 08:19:12 20 17 21
003B5940 2019-03-04 07:46:37 20 17 21
003B5940 2019-03-04 07:14:03 20 18 19.3
003B5940 2019-03-04 06:41:28 20.1 17 19.5
003B5940 2019-03-04 06:08:53 20.1 17 19.4
003B5940 2019-03-04 05:36:17 20 17 16.9
003B5940 2019-03-04 05:03:42 20.1 17 16.4
003B5940 2019-03-04 04:31:08 20.1 17 16.3
003B5940 2019-03-04 03:58:33 20.1 17 16.1
003B5940 2019-03-04 03:25:58 20.1 17 16
003B5940 2019-03-04 02:53:22 20.1 17 15.8
003B5940 2019-03-04 02:20:46 20.1 17 16.1
003B5940 2019-03-04 01:48:10 20.1 17 19
003B5940 2019-03-04 01:15:34 20.1 17 19
003B5940 2019-03-04 00:42:58 20.1 17 18.9
003B5940 2019-03-04 00:10:23 20.1 17 19.1
003B5940 2019-03-03 23:37:47 20.1 17 19
003B5940 2019-03-03 23:05:13 20.1 17 19.3
003B5940 2019-03-03 22:32:39 20.1 17 19.1
003B5940 2019-03-03 22:00:05 20.1 17 19.3
003B5940 2019-03-03 21:27:30 20.1 17 19.3
003B5940 2019-03-03 20:54:56 20.1 17 20.9
003B5940 2019-03-03 20:22:21 20.1 18 21
003B5940 2019-03-03 19:49:45 20.2 18 20.8
003B5940 2019-03-03 19:17:10 20.2 18 20.9
003B5940 2019-03-03 18:44:37 20.2 18 21.1
003B5940 2019-03-03 18:12:03 20.2 18 21.2
003B5940 2019-03-03 17:39:28 20.2 18 21.3
003B5940 2019-03-03 17:06:55 20.2 18 21.2
003B5940 2019-03-03 16:34:21 20.2 18 21.2
003B5940 2019-03-03 16:01:15 20.2 18 21.3
003B5940 2019-03-03 15:28:43 20.2 18 22.4
003B5940 2019-03-03 14:56:11 20.2 18 22.4
003B5940 2019-03-03 14:23:38 20.2 18 22.5
003B5940 2019-03-03 13:51:06 20.2 18 22.6
003B5940 2019-03-03 13:18:34 20.2 18 22.6
003B5940 2019-03-03 12:46:01 20.2 18 21.6
003B5940 2019-03-03 12:13:28 20.2 18 21.6
003B5940 2019-03-03 11:40:55 20.2 18 21.5
003B5940 2019-03-03 11:08:22 20.2 18 21.4
003B5940 2019-03-03 10:35:47 20.2 18 21.4
003B5940 2019-03-03 10:03:12 20.2 18 21.4
003B5940 2019-03-03 09:30:37 20.2 18 21.4
003B5940 2019-03-03 08:58:04 20.2 18 21.3
003B5940 2019-03-03 08:25:30 20.2 18 21.4
003B5940 2019-03-03 07:52:57 20.2 18 20
003B5940 2019-03-03 07:20:23 20.3 18 21.4
003B5940 2019-03-03 06:47:49 20.3 18 21.5
003B5940 2019-03-03 06:15:15 20.3 18 21.4
003B5940 2019-03-03 05:42:41 20.3 18 21.2
003B5940 2019-03-03 05:10:08 20.3 18 21.2
003B5940 2019-03-03 04:37:35 20.3 18 21.2
003B5940 2019-03-03 04:05:02 20.3 18 21.3
003B5940 2019-03-03 03:32:29 20.3 18 21.3
003B5940 2019-03-03 02:59:56 20.3 18 21.4
003B5940 2019-03-03 02:27:22 20.3 18 21.4
003B5940 2019-03-03 01:54:49 20.3 18 20
003B5940 2019-03-03 01:22:16 20.3 18 20
003B5940 2019-03-03 00:49:42 20.4 18 19.9
003B5940 2019-03-03 00:17:09 20.3 18 20
003B5940 2019-03-02 23:44:35 20.4 18 19.9
003B5940 2019-03-02 23:12:01 20.4 18 20
003B5940 2019-03-02 22:39:27 20.4 17 20.2
003B5940 2019-03-02 22:06:52 20.4 17 20.2
003B5940 2019-03-02 21:34:18 20.4 17 21.6
003B5940 2019-03-02 21:01:44 20.4 17 21.6
003B5940 2019-03-02 20:29:11 20.4 17 21.6
003B5940 2019-03-02 19:56:40 20.5 17 21.6
003B5940 2019-03-02 19:24:04 20.4 17 21.8
003B5940 2019-03-02 18:51:31 20.5 17 21.7
003B5940 2019-03-02 18:19:02 20.5 17 21.7
003B5940 2019-03-02 17:46:26 20.5 17 20.5
003B5940 2019-03-02 17:13:56 20.6 17 20.6
003B5940 2019-03-02 16:41:21 20.5 17 20.7
003B5940 2019-03-02 16:08:49 20.5 17 20.8
003B5940 2019-03-02 15:36:15 20.5 17 20.8
003B5940 2019-03-02 15:03:42 20.5 17 20.8
003B5940 2019-03-02 14:31:08 20.4 16 20.6
003B5940 2019-03-02 13:58:35 20.4 16 20.8
003B5940 2019-03-02 13:26:01 20.4 16 20.7
003B5940 2019-03-02 12:52:55 20.4 16 20.8
003B5940 2019-03-02 12:20:22 20.4 16 20.8
003B5940 2019-03-02 11:47:51 20.4 16 20.9
003B5940 2019-03-02 11:15:17 20.4 16 20.8
003B5940 2019-03-02 10:42:45 20.4 16 20.8
003B5940 2019-03-02 10:10:11 20.4 15 22
003B5940 2019-03-02 09:37:37 20.4 15 22
003B5940 2019-03-02 09:05:03 20.4 15 22
003B5940 2019-03-02 08:32:30 20.4 15 20.9
003B5940 2019-03-02 07:59:56 20.4 15 21
003B5940 2019-03-02 07:27:21 20.4 15 20.9
003B5940 2019-03-02 06:54:46 20.4 15 21.1
003B5940 2019-03-02 06:22:13 20.4 15 20.8
003B5940 2019-03-02 05:49:36 20.5 15 20.9
003B5940 2019-03-02 05:17:04 20.5 15 21.1
003B5940 2019-03-02 04:44:32 20.5 14 21
003B5940 2019-03-02 04:11:59 20.5 14 20.8
003B5940 2019-03-02 03:39:26 20.5 14 20.9
003B5940 2019-03-02 03:06:53 20.6 14 20.9
003B5940 2019-03-02 02:34:20 20.6 14 21.1
003B5940 2019-03-02 02:01:47 20.6 14 21
003B5940 2019-03-02 01:29:13 20.7 14 21
003B5940 2019-03-02 00:56:40 20.7 14 21
003B5940 2019-03-02 00:24:07 20.7 13 21
003B5940 2019-03-01 23:51:33 20.8 13 22.1
003B5940 2019-03-01 23:19:00 20.8 13 22
003B5940 2019-03-01 22:46:27 20.9 13 22
003B5940 2019-03-01 22:13:55 20.9 13 21.9
003B5940 2019-03-01 21:41:22 21 13 22
003B5940 2019-03-01 21:08:50 21 13 21.9
003B5940 2019-03-01 20:36:17 21 13 20.7
003B5940 2019-03-01 20:03:44 21 12 20.5
003B5940 2019-03-01 19:31:11 21 12 20.4
003B5940 2019-03-01 18:58:42 21 12 20.3
003B5940 2019-03-01 18:26:08 21.1 12 20.2
003B5940 2019-03-01 17:53:34 21.2 13 20.3
003B5940 2019-03-01 17:21:01 21.4 13 21.5
003B5940 2019-03-01 16:48:31 21.4 14 21.5
003B5940 2019-03-01 16:15:56 21.3 14 21.4
003B5940 2019-03-01 15:43:22 21.1 14 21.3
003B5940 2019-03-01 15:10:50 21 15 21.3
003B5940 2019-03-01 14:38:18 20.9 15 21.3
003B5940 2019-03-01 14:05:44 20.9 15 21.1
003B5940 2019-03-01 13:33:10 20.8 15 21
003B5940 2019-03-01 13:00:35 20.9 15 20.9
003B5940 2019-03-01 12:28:01 20.9 16 20.8
003B5940 2019-03-01 11:55:29 20.9 16 20.9
003B5940 2019-03-01 11:22:55 20.9 16 20.8
003B5940 2019-03-01 10:50:22 20.8 16 20.9
003B5940 2019-03-01 10:17:48 20.7 16 19.4
003B5940 2019-03-01 09:44:41 20.6 17 19.4
003B5940 2019-03-01 09:12:07 20.5 17 19.4
003B5940 2019-03-01 08:39:33 20.5 17 19.4
003B5940 2019-03-01 08:06:58 20.5 18 19.3
003B5940 2019-03-01 07:34:28 20.5 18 19.5
003B5940 2019-03-01 07:01:49 20.6 18 19.7
003B5940 2019-03-01 06:29:14 20.6 18 19.8
003B5940 2019-03-01 05:56:40 20.6 18 19.9
003B5940 2019-03-01 05:24:05 20.6 19 19.8
003B5940 2019-03-01 04:51:33 20.6 19 17.6
003B5940 2019-03-01 04:18:57 20.6 19 17.7
003B5940 2019-03-01 03:46:25 20.6 19 17.6
003B5940 2019-03-01 03:13:49 20.7 20 17.6
003B5940 2019-03-01 02:41:15 20.7 20 17.6
003B5940 2019-03-01 02:08:41 20.7 20 19.8
003B5940 2019-03-01 01:36:06 20.7 21 19.8
003B5940 2019-03-01 01:03:31 20.7 21 19.9
003B5940 2019-03-01 00:30:55 20.7 21 19.9
003B5940 2019-02-28 23:58:21 20.7 21 19.9
003B5940 2019-02-28 23:25:48 20.8 22 19.9
003B5940 2019-02-28 22:53:17 20.8 22 19.8
003B5940 2019-02-28 22:20:41 20.8 22 21.2
003B5940 2019-02-28 21:48:07 20.8 23 21.1
003B5940 2019-02-28 21:15:33 20.9 23 21.1
003B5940 2019-02-28 20:43:00 20.9 23 21.1
003B5940 2019-02-28 20:10:27 20.9 23 21.1
003B5940 2019-02-28 19:37:54 21 23 21.2
003B5940 2019-02-28 19:05:19 21 23 21.1
003B5940 2019-02-28 18:32:45 21.1 24 21
003B5940 2019-02-28 18:00:12 21.2 25 21.2
003B5940 2019-02-28 17:27:39 21.3 25 21.1
003B5940 2019-02-28 16:55:05 21.4 26 21.1
003B5940 2019-02-28 16:22:30 21.3 26 21
003B5940 2019-02-28 15:49:56 21.3 26 21.2
003B5940 2019-02-28 15:17:22 21.2 25 21.1
003B5940 2019-02-28 14:44:49 21.2 25 21.2
003B5940 2019-02-28 14:12:15 21.2 25 21.2
003B5940 2019-02-28 13:39:43 21.2 25 21.2
003B5940 2019-02-28 13:07:09 21.2 25 21.3
003B5940 2019-02-28 12:34:36 21.2 24 19.7
003B5940 2019-02-28 12:02:03 21.1 24 19.9
003B5940 2019-02-28 11:29:28 21.1 24 19.8
003B5940 2019-02-28 10:56:54 21 24 19.8
003B5940 2019-02-28 10:24:21 20.9 23 19.8
003B5940 2019-02-28 09:51:46 20.8 23 19.8
003B5940 2019-02-28 09:19:17 20.8 22 19.8
003B5940 2019-02-28 08:46:37 20.7 22 17.7
003B5940 2019-02-28 08:14:02 20.7 22 19.9
003B5940 2019-02-28 07:41:27 20.7 22 19.8
003B5940 2019-02-28 07:08:53 20.7 22 19.9
003B5940 2019-02-28 06:35:44 20.8 22 20
003B5940 2019-02-28 06:03:10 20.8 22 19.9
003B5940 2019-02-28 05:30:37 20.8 22 20
003B5940 2019-02-28 04:58:02 20.8 22 20
003B5940 2019-02-28 04:25:26 20.8 22 19.8
003B5940 2019-02-28 03:52:51 20.8 22 19.9
003B5940 2019-02-28 03:20:18 20.8 22 19.8
003B5940 2019-02-28 02:47:43 20.8 22 19.7
003B5940 2019-02-28 02:15:09 20.8 22 19.6
003B5940 2019-02-28 01:42:35 20.8 22 19.5
003B5940 2019-02-28 01:09:59 20.8 22 19.5
003B5940 2019-02-28 00:37:26 20.9 22 19.5
003B5940 2019-02-28 00:04:53 20.9 22 19.6
003B5940 2019-02-27 23:32:17 20.9 22 19.8
003B5940 2019-02-27 22:59:41 21 22 19.7
003B5940 2019-02-27 22:27:07 21 22 21.1
003B5940 2019-02-27 21:54:32 21 23 21.2
003B5940 2019-02-27 21:21:56 21.1 23 21.3
003B5940 2019-02-27 20:49:19 21.1 23 21.4
003B5940 2019-02-27 20:16:43 21.1 23 21.5
003B5940 2019-02-27 19:44:08 21.2 23 21.6
003B5940 2019-02-27 19:11:33 21.2 23 21.7
003B5940 2019-02-27 18:38:58 21.3 23 20.5
003B5940 2019-02-27 18:06:26 21.5 24 20.7
003B5940 2019-02-27 17:33:53 21.6 25 20.6
003B5940 2019-02-27 17:01:19 21.7 25 20.6
003B5940 2019-02-27 16:28:45 21.7 26 20.7
003B5940 2019-02-27 15:56:10 21.6 26 20.7
003B5940 2019-02-27 15:23:37 21.5 26 20.8
003B5940 2019-02-27 14:51:03 21.5 26 21
003B5940 2019-02-27 14:18:29 21.3 26 21.1
003B5940 2019-02-27 13:45:55 21.2 25 21.1
003B5940 2019-02-27 13:13:23 21.2 25 21.1
003B5940 2019-02-27 12:40:49 21.2 25 21.3
003B5940 2019-02-27 12:08:17 21.2 25 21.4
003B5940 2019-02-27 11:35:45 21.1 25 21.5
003B5940 2019-02-27 11:03:12 21.1 25 21.6
003B5940 2019-02-27 10:30:38 21 25 21.7
003B5940 2019-02-27 09:58:06 21 25 21.7
003B5940 2019-02-27 09:25:33 20.9 24 21.8
003B5940 2019-02-27 08:52:59 20.9 24 21.8
003B5940 2019-02-27 08:20:25 20.9 23 21.8
003B5940 2019-02-27 07:47:50 20.9 23 21.9
003B5940 2019-02-27 07:15:18 20.9 23 22
003B5940 2019-02-27 06:42:44 20.9 23 22
003B5940 2019-02-27 06:10:11 20.9 23 22.1
003B5940 2019-02-27 05:37:37 20.9 23 22.1
003B5940 2019-02-27 05:05:04 20.9 23 22.9
003B5940 2019-02-27 04:32:30 20.9 23 22.8
003B5940 2019-02-27 03:59:56 21 23 22.8
003B5940 2019-02-27 03:26:50 21 23 22.7
003B5940 2019-02-27 02:54:17 21 23 22.7
003B5940 2019-02-27 02:21:42 21 23 22.8
003B5940 2019-02-27 01:49:07 21 23 23.5
003B5940 2019-02-27 01:16:33 21.1 23 23.4
003B5940 2019-02-27 00:43:58 21.1 23 23.5
003B5940 2019-02-27 00:11:23 21.1 23 24.1
003B5940 2019-02-26 23:38:47 21.2 24 24
003B5940 2019-02-26 23:06:11 21.2 24 24
003B5940 2019-02-26 22:33:36 21.3 24 24
003B5940 2019-02-26 22:01:00 21.4 24 24.5
003B5940 2019-02-26 21:28:25 21.4 24 25
003B5940 2019-02-26 20:55:50 21.4 24 25.5
003B5940 2019-02-26 20:23:15 21.5 24 25.9
003B5940 2019-02-26 19:50:40 21.5 24 25.9
003B5940 2019-02-26 19:18:06 21.6 24 26.3
003B5940 2019-02-26 18:45:33 21.7 24 26.6
003B5940 2019-02-26 18:12:59 21.8 24 26.9
003B5940 2019-02-26 17:40:27 21.8 24 27.2
003B5940 2019-02-26 17:07:52 21.9 24 27.4
003B5940 2019-02-26 16:35:19 21.9 25 27.7
003B5940 2019-02-26 16:02:45 21.9 25 27.5
003B5940 2019-02-26 15:30:11 21.7 25 27.8
003B5940 2019-02-26 14:57:40 21.6 25 28
003B5940 2019-02-26 14:25:04 21.5 24 28.3
003B5940 2019-02-26 13:52:31 21.5 25 28.5
003B5940 2019-02-26 13:19:58 21.5 25 28.7
003B5940 2019-02-26 12:47:25 21.5 25 28.9
003B5940 2019-02-26 12:14:52 21.4 25 28.9
003B5940 2019-02-26 11:42:20 21.3 25 29.1
003B5940 2019-02-26 11:09:47 21.3 24 29.3
003B5940 2019-02-26 10:37:14 21.1 24 29.1
003B5940 2019-02-26 10:04:40 21.1 24 29.3
003B5940 2019-02-26 09:32:08 20.9 23 29.5
003B5940 2019-02-26 08:59:35 20.9 23 29.7
003B5940 2019-02-26 08:27:02 20.8 23 29.7
003B5940 2019-02-26 07:54:29 20.8 23 29.7
003B5940 2019-02-26 07:21:57 20.9 23 29.7
003B5940 2019-02-26 06:49:24 20.9 23 29.5
003B5940 2019-02-26 06:16:50 20.9 23 29.5
003B5940 2019-02-26 05:44:17 20.9 22 29.5
003B5940 2019-02-26 05:11:43 20.9 22 29.5
003B5940 2019-02-26 04:39:10 20.9 22 29.5
003B5940 2019-02-26 04:06:36 20.9 22 29.4
003B5940 2019-02-26 03:34:01 20.9 22 29.2
003B5940 2019-02-26 03:01:27 20.9 22 29
003B5940 2019-02-26 02:28:53 20.9 22 28.9
003B5940 2019-02-26 01:56:20 21 22 28.7
003B5940 2019-02-26 01:23:46 21 21 28.5
003B5940 2019-02-26 00:51:13 21 21 28.3
003B5940 2019-02-26 00:18:08 21 21 27.8
003B5940 2019-02-25 23:45:36 21.1 21 27.5
003B5940 2019-02-25 23:13:03 21.1 21 27.2
003B5940 2019-02-25 22:40:30 21.2 21 26.9
003B5940 2019-02-25 22:07:58 21.2 21 26.5
003B5940 2019-02-25 21:35:25 21.2 21 26.5
003B5940 2019-02-25 21:02:50 21.3 21 26.1
003B5940 2019-02-25 20:30:17 21.4 21 25.7
003B5940 2019-02-25 19:57:45 21.4 21 25.2
003B5940 2019-02-25 19:25:10 21.5 21 24.7
003B5940 2019-02-25 18:52:36 21.5 21 24.1
003B5940 2019-02-25 18:20:01 21.6 21 23.4
003B5940 2019-02-25 17:47:25 21.6 21 23.4
003B5940 2019-02-25 17:14:50 21.6 21 22.6
003B5940 2019-02-25 16:42:15 21.6 22 21.6
003B5940 2019-02-25 16:09:40 21.7 22 20.3
003B5940 2019-02-25 15:37:04 21.7 22 18.3
003B5940 2019-02-25 15:04:30 21.7 22 18.6
003B5940 2019-02-25 14:31:56 21.5 22 18.9
003B5940 2019-02-25 13:59:22 21.4 22 18.7
003B5940 2019-02-25 13:26:46 21.3 22 18.9
003B5940 2019-02-25 12:54:12 21.2 22 18.7
003B5940 2019-02-25 12:21:39 21.2 22 18.9
003B5940 2019-02-25 11:49:06 21.1 22 18.9
003B5940 2019-02-25 11:16:34 21 22 19.1
003B5940 2019-02-25 10:44:01 20.9 22 19.1
003B5940 2019-02-25 10:11:28 20.8 22 19.2
003B5940 2019-02-25 09:38:57 20.7 21 19.3
003B5940 2019-02-25 09:06:22 20.7 21 19.3
003B5940 2019-02-25 08:33:49 20.6 21 19.3
003B5940 2019-02-25 08:01:16 20.6 21 19.5
003B5940 2019-02-25 07:28:43 20.6 21 19.7
003B5940 2019-02-25 06:56:09 20.6 21 19.6
003B5940 2019-02-25 06:23:36 20.6 22 19.6
003B5940 2019-02-25 05:51:03 20.6 21 19.4
003B5940 2019-02-25 05:18:29 20.6 22 19.3
003B5940 2019-02-25 04:45:56 20.7 22 19.2
003B5940 2019-02-25 04:13:21 20.6 22 19.3
003B5940 2019-02-25 03:40:47 20.7 22 19.3
003B5940 2019-02-25 03:08:12 20.7 22 19.2
003B5940 2019-02-25 02:35:38 20.7 22 19.5
003B5940 2019-02-25 02:03:04 20.7 22 19.5
003B5940 2019-02-25 01:30:30 20.7 22 19.4
003B5940 2019-02-25 00:57:59 20.7 22 19.4
003B5940 2019-02-25 00:25:20 20.7 22 19.5
003B5940 2019-02-24 23:52:45 20.7 22 19.5
003B5940 2019-02-24 23:20:10 20.7 22 19.5
003B5940 2019-02-24 22:47:35 20.7 22 19.4
003B5940 2019-02-24 22:15:01 20.7 22 19.4
003B5940 2019-02-24 21:42:26 20.8 22 19.2
003B5940 2019-02-24 21:09:20 20.8 22 19.1
003B5940 2019-02-24 20:36:43 20.8 22 19.3
003B5940 2019-02-24 20:04:09 20.8 22 19.4
003B5940 2019-02-24 19:31:34 20.8 22 19.3
003B5940 2019-02-24 18:58:59 20.8 22 19.4
003B5940 2019-02-24 18:26:23 20.8 21 19.1
003B5940 2019-02-24 17:53:52 20.8 21 19.1
003B5940 2019-02-24 17:21:13 20.8 21 19.4
003B5940 2019-02-24 16:48:39 20.8 21 19.5
003B5940 2019-02-24 16:16:04 20.8 21 19.4
003B5940 2019-02-24 15:43:29 20.8 21 19.6
003B5940 2019-02-24 15:10:55 20.8 21 19.4
003B5940 2019-02-24 14:38:21 20.8 21 19.5
003B5940 2019-02-24 14:05:47 20.8 21 19.8
003B5940 2019-02-24 13:33:15 20.8 21 19.7
003B5940 2019-02-24 13:00:42 20.8 21 19.7
003B5940 2019-02-24 12:28:11 20.8 20 19.5
003B5940 2019-02-24 11:55:36 20.8 20 19.5
003B5940 2019-02-24 11:23:03 20.8 20 19.4
003B5940 2019-02-24 10:50:27 20.8 20 19.3
003B5940 2019-02-24 10:17:52 20.8 20 19.4
003B5940 2019-02-24 09:45:18 20.8 20 19.4
003B5940 2019-02-24 09:12:43 20.8 20 19.1
003B5940 2019-02-24 08:40:09 20.8 20 19.2
003B5940 2019-02-24 08:07:35 20.8 20 19.2
003B5940 2019-02-24 07:35:01 20.8 20 19
003B5940 2019-02-24 07:02:27 20.8 20 18.9
003B5940 2019-02-24 06:29:53 20.9 20 18.8
003B5940 2019-02-24 05:57:21 20.9 20 18.8
003B5940 2019-02-24 05:24:47 20.9 20 18.6
003B5940 2019-02-24 04:52:14 20.9 20 18.8
003B5940 2019-02-24 04:19:38 20.9 19 18.8
003B5940 2019-02-24 03:47:04 20.9 19 18.6
003B5940 2019-02-24 03:14:30 20.9 19 18.6
003B5940 2019-02-24 02:41:55 20.9 19 18.6
003B5940 2019-02-24 02:09:21 20.9 19 18.4
003B5940 2019-02-24 01:36:48 21 19 18.7
003B5940 2019-02-24 01:04:13 21 19 18.6
003B5940 2019-02-24 00:31:40 21 19 18.5
003B5940 2019-02-23 23:59:05 21 19 18.5
003B5940 2019-02-23 23:26:36 21 19 18.8
003B5940 2019-02-23 22:53:59 21.1 18 18.9
003B5940 2019-02-23 22:21:27 21.1 18 19
003B5940 2019-02-23 21:48:54 21.1 18 18.9
003B5940 2019-02-23 21:16:19 21.1 18 18.7
003B5940 2019-02-23 20:43:50 21.1 18 18.9
003B5940 2019-02-23 20:11:15 21.2 18 18.9
003B5940 2019-02-23 19:38:39 21.2 17 19.2
003B5940 2019-02-23 19:06:06 21.2 17 20.8
003B5940 2019-02-23 18:33:34 21.2 17 20.9
003B5940 2019-02-23 18:00:29 21.2 17 20.9
003B5940 2019-02-23 17:27:57 21.2 16 21.1
003B5940 2019-02-23 16:55:25 21.2 16 21.1
003B5940 2019-02-23 16:22:49 21.1 16 21.3
003B5940 2019-02-23 15:50:15 21.1 16 21.4
003B5940 2019-02-23 15:17:42 21 16 21.3
003B5940 2019-02-23 14:45:09 20.9 15 21.3
003B5940 2019-02-23 14:12:36 20.9 15 21.2
003B5940 2019-02-23 13:40:02 20.9 15 21.2
003B5940 2019-02-23 13:07:29 20.9 15 21.3
003B5940 2019-02-23 12:34:55 20.9 15 21.3
003B5940 2019-02-23 12:02:22 20.9 15 21.1
003B5940 2019-02-23 11:29:49 20.9 15 21
003B5940 2019-02-23 10:57:12 20.8 15 20.9
003B5940 2019-02-23 10:24:39 20.9 15 20.7
003B5940 2019-02-23 09:52:06 20.9 14 20.7
003B5940 2019-02-23 09:19:31 20.8 14 20.6
003B5940 2019-02-23 08:46:57 20.8 14 20.6
003B5940 2019-02-23 08:14:24 20.8 14 20.6
003B5940 2019-02-23 07:41:50 20.8 14 21.7
003B5940 2019-02-23 07:09:16 20.8 14 21.7
003B5940 2019-02-23 06:36:43 20.8 14 21.6
003B5940 2019-02-23 06:04:10 20.8 13 20.2
003B5940 2019-02-23 05:31:41 20.8 13 20.2
003B5940 2019-02-23 04:59:05 20.8 13 20.1
003B5940 2019-02-23 04:26:32 20.8 13 20.1
003B5940 2019-02-23 03:54:00 20.8 13 20
003B5940 2019-02-23 03:21:27 20.8 13 19.9
003B5940 2019-02-23 02:48:53 20.9 13 19.7
003B5940 2019-02-23 02:16:20 20.8 13 19.4
003B5940 2019-02-23 01:43:47 20.9 13 19.4
003B5940 2019-02-23 01:11:15 20.9 12 19.4
003B5940 2019-02-23 00:38:39 20.9 12 19.5
003B5940 2019-02-23 00:06:09 20.9 12 19.6
003B5940 2019-02-22 23:33:35 20.9 12 19.6
003B5940 2019-02-22 23:01:04 21 12 19.4
003B5940 2019-02-22 22:28:29 21 12 19.4
003B5940 2019-02-22 21:55:56 21 12 19.4
003B5940 2019-02-22 21:23:23 21 12 19.5
003B5940 2019-02-22 20:50:50 21 12 21.1
003B5940 2019-02-22 20:18:16 21.1 12 21
003B5940 2019-02-22 19:45:45 21.1 12 21.1
003B5940 2019-02-22 19:13:12 21.1 12 21.1
003B5940 2019-02-22 18:40:36 21.1 12 21.2
003B5940 2019-02-22 18:08:03 21.2 12 19.7
003B5940 2019-02-22 17:35:29 21.2 13 19.6
003B5940 2019-02-22 17:02:55 21.2 13 19.6
003B5940 2019-02-22 16:30:22 21.1 13 19.7
003B5940 2019-02-22 15:57:50 21.1 13 19.5
003B5940 2019-02-22 15:25:18 21 13 19.4
003B5940 2019-02-22 14:52:13 20.9 13 19.2
003B5940 2019-02-22 14:41:17 20.9 13 19.2
003B5940 2019-02-22 14:30:20 20.9 13 19.1
003B5940 2019-02-22 14:19:23 20.8 13 19.1
003B5940 2019-02-22 14:08:25 20.8 13 19
003B5940 2019-02-22 13:57:30 20.8 13 19
003B5940 2019-02-22 13:46:30 20.8 13 18.8
003B5940 2019-02-22 13:35:32 20.8 13 18.9
003B5940 2019-02-22 13:24:35 20.8 13 19
003B5940 2019-02-22 13:13:37 20.8 13 19.2
003B5940 2019-02-22 13:02:39 20.7 13 19.2
003B5940 2019-02-22 12:51:42 20.7 13 19.4
003B5940 2019-02-22 12:40:45 20.7 13 19.2
003B5940 2019-02-22 12:29:47 20.7 13 16.5
003B5940 2019-02-22 12:18:52 20.7 13 16.9
003B5940 2019-02-22 12:07:55 20.7 13 16.4
003B5940 2019-02-22 11:56:58 20.7 13 16.4
003B5940 2019-02-22 11:45:58 20.7 13 16.1
003B5940 2019-02-22 11:35:01 20.7 13 16.1
003B5940 2019-02-22 11:24:03 20.6 13 16
003B5940 2019-02-22 11:13:06 20.6 13 16.1
003B5940 2019-02-22 11:02:07 20.6 13 16
003B5940 2019-02-22 10:51:11 20.5 13 16
003B5940 2019-02-22 10:40:13 20.5 13 16.2
003B5940 2019-02-22 10:29:16 20.5 13 16.1
003B5940 2019-02-22 10:18:18 20.5 13 16.5
003B5940 2019-02-22 10:07:21 20.5 13 16.7
003B5940 2019-02-22 09:56:24 20.5 13 16.6
003B5940 2019-02-22 09:45:27 20.5 13 16.6
003B5940 2019-02-22 09:34:30 20.5 13 16.7
003B5940 2019-02-22 09:23:34 20.5 13 16.9
003B5940 2019-02-22 09:12:37 20.4 13 17.1
003B5940 2019-02-22 09:01:40 20.5 13 16.9
003B5940 2019-02-22 08:50:43 20.5 13 16.3
003B5940 2019-02-22 08:39:46 20.5 13 16.1
003B5940 2019-02-22 08:28:48 20.5 13 16.3
003B5940 2019-02-22 08:17:50 20.5 13 15.8
003B5940 2019-02-22 08:06:53 20.5 13 15.7
003B5940 2019-02-22 07:55:55 20.5 13 15.7
003B5940 2019-02-22 07:44:57 20.5 13 15.5
003B5940 2019-02-22 07:33:59 20.5 13 15.5
003B5940 2019-02-22 07:23:02 20.5 13 15.7
003B5940 2019-02-22 07:12:04 20.5 13 16.1
003B5940 2019-02-22 07:01:06 20.5 13 16.2
003B5940 2019-02-22 06:50:08 20.5 13 16.2
003B5940 2019-02-22 06:39:12 20.5 13 16.3
003B5940 2019-02-22 06:28:14 20.5 13 16.6
003B5940 2019-02-22 06:17:16 20.5 13 16.7
003B5940 2019-02-22 06:06:18 20.5 13 16.6
003B5940 2019-02-22 05:55:21 20.5 13 16.6
003B5940 2019-02-22 05:43:50 20.5 13 16.5
003B5940 2019-02-22 05:32:52 20.6 13 16.6
003B5940 2019-02-22 05:21:55 20.5 13 16.6
003B5940 2019-02-22 05:10:57 20.5 13 16.5
003B5940 2019-02-22 04:59:58 20.6 13 16.6
003B5940 2019-02-22 04:49:01 20.5 13 16.4
003B5940 2019-02-22 04:38:03 20.6 13 16.3
003B5940 2019-02-22 04:27:05 20.6 13 16.5
003B5940 2019-02-22 04:16:07 20.6 13 16.5
003B5940 2019-02-22 04:05:10 20.6 13 16.4
003B5940 2019-02-22 03:54:13 20.6 13 16.3
003B5940 2019-02-22 03:43:16 20.6 13 16.3
003B5940 2019-02-22 03:32:19 20.6 13 16.3
003B5940 2019-02-22 03:21:22 20.6 13 16.1
003B5940 2019-02-22 03:10:25 20.6 13 16.1
003B5940 2019-02-22 02:59:26 20.6 13 16.5
003B5940 2019-02-22 02:48:29 20.6 13 16.3
003B5940 2019-02-22 02:37:31 20.6 13 16.6
003B5940 2019-02-22 02:26:36 20.6 13 17.1
003B5940 2019-02-22 02:15:36 20.6 13 16.8
003B5940 2019-02-22 02:04:43 20.7 13 16.6
003B5940 2019-02-22 01:53:41 20.7 13 16.5
003B5940 2019-02-22 01:42:44 20.6 13 16.3
003B5940 2019-02-22 01:31:48 20.7 13 16.3
003B5940 2019-02-22 01:20:51 20.7 13 16.3
003B5940 2019-02-22 01:09:53 20.7 13 16.4
003B5940 2019-02-22 00:58:54 20.7 13 16.3
003B5940 2019-02-22 00:47:58 20.7 13 16.5
003B5940 2019-02-22 00:37:01 20.7 13 16.5
003B5940 2019-02-22 00:26:02 20.7 13 16
003B5940 2019-02-22 00:15:05 20.7 13 16.1
003B5940 2019-02-22 00:04:09 20.7 13 16.2
003B5940 2019-02-21 23:53:10 20.7 13 16
003B5940 2019-02-21 23:42:12 20.7 13 16.3
003B5940 2019-02-21 23:31:16 20.7 13 16.3
003B5940 2019-02-21 23:20:18 20.8 13 16.3
003B5940 2019-02-21 23:09:21 20.7 13 16.4
003B5940 2019-02-21 22:58:24 20.8 13 19.1
003B5940 2019-02-21 22:47:26 20.8 13 19.2
003B5940 2019-02-21 22:36:31 20.8 13 20.9
003B5940 2019-02-21 22:25:34 20.8 13 21.9
003B5940 2019-02-21 22:14:35 20.8 13 22.9
003B5940 2019-02-21 22:03:39 20.8 13 23.6
003B5940 2019-02-21 21:52:40 20.8 13 23.6
003B5940 2019-02-21 21:41:44 20.8 13 23.6
003B5940 2019-02-21 21:30:47 20.8 13 23.5
003B5940 2019-02-21 21:19:50 20.9 13 23.5
003B5940 2019-02-21 21:08:54 20.9 13 23.5
003B5940 2019-02-21 20:57:57 20.9 13 23.5
003B5940 2019-02-21 20:47:01 20.9 13 23.5
003B5940 2019-02-21 20:35:31 20.9 13 23.5
003B5940 2019-02-21 20:02:59 21 13 23.5
003B5940 2019-02-21 19:30:26 21 13 23.5
003B5940 2019-02-21 18:57:54 21.1 13 23.5
003B5940 2019-02-21 18:25:20 21.1 13 23.5
003B5940 2019-02-21 17:52:48 21.2 13 23.5
003B5940 2019-02-21 17:20:14 21.2 13 23.6
003B5940 2019-02-21 16:47:38 21.2 13 23.6
003B5940 2019-02-21 16:15:06 21 13 23.5
003B5940 2019-02-21 15:42:30 20.9 13 23.5
003B5940 2019-02-21 15:09:56 20.7 12 23.6
003B5940 2019-02-21 14:37:22 20.7 12 23.6
003B5940 2019-02-21 14:04:48 20.6 13 22.8
003B5940 2019-02-21 13:32:13 20.6 13 22.8
003B5940 2019-02-21 12:59:37 20.6 13 21.8
003B5940 2019-02-21 12:27:01 20.6 14 20.5
003B5940 2019-02-21 11:54:27 20.6 14 18.7
003B5940 2019-02-21 11:21:53 20.6 14 15.6
003B5940 2019-02-21 10:49:18 20.6 15 15.7
003B5940 2019-02-21 10:16:44 20.5 15 15.8
003B5940 2019-02-21 09:44:10 20.5 15 15.9
003B5940 2019-02-21 09:11:40 20.5 15 16.1
003B5940 2019-02-21 08:39:00 20.5 16 16.2
003B5940 2019-02-21 08:06:28 20.5 16 16.3
003B5940 2019-02-21 07:33:54 20.5 17 16.2
003B5940 2019-02-21 07:01:19 20.6 17 16.2
003B5940 2019-02-21 06:28:45 20.6 17 16.6
003B5940 2019-02-21 05:56:11 20.6 17 16.6
003B5940 2019-02-21 05:23:38 20.6 17 16.9
003B5940 2019-02-21 04:51:02 20.6 17 16.9
003B5940 2019-02-21 04:18:28 20.6 17 16.7
003B5940 2019-02-21 03:45:55 20.6 17 16.9
003B5940 2019-02-21 03:13:21 20.6 18 16.8
003B5940 2019-02-21 02:40:48 20.6 18 19.4
003B5940 2019-02-21 02:08:16 20.7 18 20.9
003B5940 2019-02-21 01:35:42 20.7 18 22.1
003B5940 2019-02-21 01:03:08 20.7 18 23
003B5940 2019-02-21 00:30:34 20.7 18 23
003B5940 2019-02-20 23:58:00 20.7 18 23
003B5940 2019-02-20 23:25:27 20.7 19 23.8
003B5940 2019-02-20 22:52:54 20.7 19 24.4
003B5940 2019-02-20 22:20:22 20.7 19 24.4
003B5940 2019-02-20 21:47:49 20.7 19 24.4
003B5940 2019-02-20 21:15:16 20.7 19 24.4
003B5940 2019-02-20 20:42:45 20.8 19 24.4
003B5940 2019-02-20 20:10:11 20.8 19 24.4
003B5940 2019-02-20 19:37:39 20.8 19 24.4
003B5940 2019-02-20 19:05:06 20.9 19 24.4
003B5940 2019-02-20 18:32:34 21 19 24.3
003B5940 2019-02-20 18:00:00 21.5 19 24.3
003B5940 2019-02-20 17:26:47 20.9 20 24.3
003B5940 2019-02-20 16:54:15 20.9 21 24.2
003B5940 2019-02-20 16:21:43 20.9 22 24.2
003B5940 2019-02-20 15:49:14 20.8 22 24.2
003B5940 2019-02-20 15:16:42 20.8 21 24.8